| time (UTC) | temp C | wind direction | speed KPH | gust KPH | rain 1hr cm | rain 24hr cm | rain mn cm | humidity % | barometer mb |
| 20260903050128 | 11 | 111 | 3.2 | 12.9 | 0.00 | 2.03 | 2.03 | 98 | 1010.0 |
| 20260903044558 | 11 | 0 | 3.2 | 16.1 | 0.05 | 2.03 | 2.03 | 98 | 1009.9 |
| 20260903043059 | 11 | 0 | 1.6 | 11.3 | 0.10 | 2.03 | 2.03 | 98 | 1009.8 |
| 20260903041603 | 11 | 105 | 3.2 | 14.5 | 0.10 | 2.03 | 2.03 | 98 | 1009.7 |
| 20260903040104 | 11 | 111 | 1.6 | 17.7 | 0.08 | 2.01 | 2.01 | 98 | 1009.7 |
| 20260903034603 | 11 | 0 | 0.0 | 11.3 | 0.03 | 1.96 | 1.96 | 98 | 1009.6 |
| 20260903033103 | 12 | 114 | 0.0 | 9.7 | 0.00 | 1.93 | 1.93 | 98 | 1009.5 |
| 20260903031601 | 12 | 111 | 0.0 | 9.7 | 0.00 | 1.93 | 1.93 | 98 | 1009.3 |
| 20260903030100 | 12 | 108 | 0.0 | 11.3 | 0.00 | 1.93 | 1.93 | 98 | 1009.0 |
| 20260903024600 | 12 | 109 | 1.6 | 14.5 | 0.00 | 1.93 | 1.93 | 98 | 1008.9 |
| 20260903023124 | 12 | 0 | 0.0 | 16.1 | 0.03 | 1.93 | 1.93 | 98 | 1008.9 |
| 20260903021607 | 12 | 0 | 0.0 | 12.9 | 0.08 | 1.93 | 1.93 | 98 | 1008.8 |
| 20260903020101 | 12 | 0 | 3.2 | 12.9 | 0.10 | 1.93 | 1.93 | 97 | 1008.7 |
| 20260903014612 | 12 | 0 | 3.2 | 12.9 | 0.18 | 1.93 | 1.93 | 98 | 1008.6 |
| 20260903013101 | 12 | 0 | 0.0 | 6.4 | 0.30 | 1.91 | 1.91 | 97 | 1008.5 |
| 20260903011611 | 12 | 178 | 1.6 | 9.7 | 0.58 | 1.85 | 1.85 | 97 | 1008.2 |
| 20260903010059 | 12 | 0 | 1.6 | 9.7 | 0.66 | 1.83 | 1.83 | 97 | 1008.1 |
| 20260903004601 | 13 | 0 | 1.6 | 8.0 | 0.58 | 1.75 | 1.75 | 97 | 1008.0 |
| 20260903003103 | 13 | 0 | 3.2 | 9.7 | 0.46 | 1.60 | 1.60 | 97 | 1007.9 |
| 20260903001600 | 13 | 0 | 0.0 | 4.8 | 0.13 | 1.27 | 1.27 | 97 | 1007.6 |
| 20260903000107 | 13 | 0 | 0.0 | 3.2 | 0.03 | 1.17 | 1.17 | 97 | 1007.6 |
| 20260902234559 | 13 | 0 | 0.0 | 1.6 | 0.05 | 1.17 | 1.17 | 97 | 1007.6 |
| 20260902233102 | 13 | 0 | 0.0 | 1.6 | 0.03 | 1.14 | 1.14 | 97 | 1007.6 |
| 20260902231609 | 13 | 0 | 0.0 | 6.4 | 0.05 | 1.14 | 1.14 | 97 | 1007.6 |
| 20260902230104 | 13 | 0 | 0.0 | 8.0 | 0.05 | 1.14 | 1.14 | 97 | 1007.3 |
| 20260902224602 | 13 | 0 | 0.0 | 4.8 | 0.05 | 1.12 | 1.12 | 97 | 1007.6 |
| 20260902223109 | 13 | 0 | 0.0 | 12.9 | 0.05 | 1.12 | 1.12 | 97 | 1007.5 |
| 20260902221602 | 13 | 0 | 0.0 | 1.6 | 0.05 | 1.09 | 1.09 | 98 | 1007.6 |
| 20260902214601 | 13 | 0 | 0.0 | 3.2 | 0.15 | 1.07 | 1.07 | 98 | 1007.4 |
| 20260902213102 | 13 | 0 | 0.0 | 0.0 | 0.30 | 1.07 | 1.07 | 98 | 1007.5 |
| 20260902211600 | 13 | 0 | 0.0 | 0.0 | 0.38 | 1.04 | 1.04 | 97 | 1007.6 |
| 20260902210058 | 13 | 0 | 0.0 | 0.0 | 0.46 | 1.02 | 1.02 | 97 | 1007.3 |
| 20260902204604 | 13 | 0 | 0.0 | 0.0 | 0.43 | 0.91 | 0.91 | 97 | 1007.1 |
| 20260902203102 | 13 | 0 | 0.0 | 0.0 | 0.30 | 0.76 | 0.76 | 97 | 1007.1 |
| 20260902201606 | 13 | 0 | 0.0 | 0.0 | 0.28 | 0.66 | 0.66 | 97 | 1007.0 |
| 20260902200112 | 13 | 0 | 0.0 | 1.6 | 0.20 | 0.56 | 0.56 | 97 | 1007.1 |
| 20260902194602 | 13 | 0 | 0.0 | 0.0 | 0.20 | 0.48 | 0.48 | 96 | 1007.3 |
| 20260902193107 | 13 | 0 | 0.0 | 3.2 | 0.23 | 0.46 | 0.46 | 96 | 1007.3 |
| 20260902191559 | 13 | 0 | 0.0 | 4.8 | 0.25 | 0.38 | 0.38 | 95 | 1007.7 |
| 20260902190100 | 13 | 0 | 0.0 | 3.2 | 0.28 | 0.36 | 0.36 | 96 | 1007.9 |
| 20260902184604 | 13 | 0 | 0.0 | 1.6 | 0.23 | 0.28 | 0.28 | 94 | 1008.1 |
| 20260902183108 | 14 | 0 | 0.0 | 8.0 | 0.18 | 0.23 | 0.23 | 94 | 1008.0 |
| 20260902181603 | 15 | 0 | 0.0 | 0.0 | 0.10 | 0.13 | 0.13 | 95 | 1008.1 |
| 20260902180131 | 15 | 0 | 0.0 | 0.0 | 0.08 | 0.08 | 0.08 | 94 | 1007.8 |
| 20260902174558 | 15 | 0 | 0.0 | 0.0 | 0.05 | 0.05 | 0.05 | 93 | 1007.5 |
| 20260902173104 | 15 | 0 | 0.0 | 0.0 | 0.05 | 0.05 | 0.05 | 93 | 1007.6 |
| 20260902171641 | 15 | 0 | 0.0 | 0.0 | 0.03 | 0.03 | 0.03 | 91 | 1007.5 |
| 20260902170105 | 15 | 0 | 0.0 | 1.6 | 0.00 | 0.00 | 0.00 | 86 | 1007.6 |
| 20260902164606 | 15 | 0 | 0.0 | 3.2 | 0.00 | 0.00 | 0.00 | 86 | 1007.3 |
| 20260902163105 | 15 | 0 | 0.0 | 1.6 | 0.00 | 0.00 | 0.00 | 87 | 1007.4 |
| 20260902161559 | 14 | 0 | 0.0 | 0.0 | 0.00 | 0.00 | 0.00 | 89 | 1007.5 |
| 20260902160111 | 14 | 0 | 0.0 | 1.6 | 0.00 | 0.00 | 0.00 | 88 | 1007.7 |
| 20260902154600 | 14 | 0 | 0.0 | 0.0 | 0.00 | 0.00 | 0.00 | 87 | 1007.7 |
| 20260902153057 | 14 | 0 | 0.0 | 1.6 | 0.00 | 0.00 | 0.00 | 87 | 1007.8 |
| 20260902151556 | 14 | 0 | 0.0 | 1.6 | 0.00 | 0.00 | 0.00 | 88 | 1007.9 |
| 20260902144601 | 13 | 0 | 0.0 | 0.0 | 0.00 | 0.00 | 0.00 | 87 | 1008.1 |
| 20260902143107 | 13 | 0 | 0.0 | 0.0 | 0.00 | 0.00 | 0.00 | 87 | 1008.6 |
| 20260902141554 | 13 | 0 | 0.0 | 1.6 | 0.00 | 0.00 | 0.00 | 86 | 1008.7 |
| 20260902134604 | 13 | 0 | 1.6 | 6.4 | 0.00 | 0.00 | 0.00 | 87 | 1009.1 |
| 20260902133058 | 13 | 98 | 0.0 | 4.8 | 0.00 | 0.00 | 0.00 | 87 | 1009.3 |
| 20260902131602 | 13 | 103 | 1.6 | 6.4 | 0.00 | 0.00 | 0.00 | 86 | 1009.3 |
| 20260902130104 | 13 | 105 | 3.2 | 9.7 | 0.00 | 0.00 | 0.00 | 85 | 1009.6 |
| 20260902124603 | 13 | 0 | 1.6 | 11.3 | 0.00 | 0.00 | 0.00 | 86 | 1009.7 |
| 20260902123101 | 13 | 0 | 0.0 | 9.7 | 0.00 | 0.00 | 0.00 | 86 | 1010.0 |
| 20260902121607 | 13 | 0 | 1.6 | 9.7 | 0.00 | 0.00 | 0.00 | 87 | 1010.3 |
| 20260902114559 | 13 | 0 | 0.0 | 3.2 | 0.00 | 0.00 | 0.00 | 89 | 1010.5 |
| 20260902113106 | 13 | 0 | 0.0 | 3.2 | 0.00 | 0.00 | 0.00 | 88 | 1010.4 |
| 20260902111605 | 13 | 113 | 0.0 | 4.8 | 0.00 | 0.00 | 0.00 | 88 | 1010.6 |
| 20260902110116 | 13 | 0 | 0.0 | 4.8 | 0.00 | 0.00 | 0.00 | 87 | 1010.7 |
| 20260902104600 | 13 | 106 | 0.0 | 9.7 | 0.00 | 0.00 | 0.00 | 87 | 1010.7 |
| 20260902103058 | 13 | 113 | 1.6 | 6.4 | 0.00 | 0.00 | 0.00 | 87 | 1010.8 |
| 20260902101601 | 13 | 113 | 0.0 | 3.2 | 0.00 | 0.00 | 0.00 | 87 | 1011.0 |
| 20260902100113 | 13 | 0 | 0.0 | 4.8 | 0.00 | 0.00 | 0.00 | 86 | 1011.2 |
| 20260902094601 | 13 | 106 | 1.6 | 6.4 | 0.00 | 0.00 | 0.00 | 86 | 1011.2 |
| 20260902093058 | 13 | 0 | 1.6 | 6.4 | 0.00 | 0.00 | 0.00 | 86 | 1011.4 |
| 20260902091603 | 13 | 105 | 0.0 | 11.3 | 0.00 | 0.00 | 0.00 | 86 | 1011.4 |
| 20260902090100 | 13 | 0 | 1.6 | 9.7 | 0.00 | 0.00 | 0.00 | 86 | 1011.6 |
| 20260902084610 | 13 | 88 | 0.0 | 11.3 | 0.00 | 0.00 | 0.00 | 86 | 1011.6 |
| 20260902083059 | 13 | 168 | 1.6 | 12.9 | 0.00 | 0.00 | 0.00 | 87 | 1011.6 |
| 20260902081603 | 13 | 92 | 0.0 | 6.4 | 0.00 | 0.00 | 0.00 | 87 | 1011.5 |
| 20260902074606 | 14 | 0 | 1.6 | 9.7 | 0.00 | 0.00 | 0.00 | 86 | 1011.6 |
| 20260902073100 | 14 | 93 | 0.0 | 6.4 | 0.00 | 0.00 | 0.00 | 86 | 1011.7 |
| 20260902071606 | 14 | 118 | 1.6 | 9.7 | 0.00 | 0.00 | 0.00 | 86 | 1011.9 |
| 20260902070114 | 14 | 111 | 1.6 | 11.3 | 0.00 | 0.00 | 0.00 | 86 | 1012.0 |
| 20260902064610 | 14 | 0 | 1.6 | 6.4 | 0.00 | 0.00 | 0.00 | 85 | 1012.3 |
| 20260902063101 | 14 | 109 | 1.6 | 9.7 | 0.00 | 0.00 | 0.00 | 85 | 1012.3 |
| 20260902060111 | 15 | 0 | 0.0 | 0.0 | 0.00 | 0.00 | 0.00 | 84 | 1012.4 |
| 20260902054559 | 15 | 115 | 0.0 | 4.8 | 0.00 | 0.00 | 0.00 | 83 | 1012.5 |
| 20260902053116 | 15 | 108 | 0.0 | 14.5 | 0.00 | 0.00 | 0.00 | 83 | 1012.5 |
| 20260902051601 | 15 | 115 | 0.0 | 4.8 | 0.00 | 0.00 | 0.00 | 83 | 1012.5 |